Weather in Dunayevo

Russia / Novgorod Oblast     57°01′47″N   30°52′58″E
temp.,
°C
wind,
m/s
gust,
m/s
humid.,
%
clouds,
%
prec.,
mm/h
press.,
hPa
HPBL,
m
2 march, tue
tue200:00+3w41390100 0.0 1016638
03:00+1wnw41292100 0.0 1016570
06:00+1wnw31191100 0.0 1015621
09:00+1wnw51297100 0.2 1015840
12:00+1nw41092100 0.7 1014822
15:00+3nw5107593 1.0 10151206
18:00+1nw4127945 0.0 1017868
21:00−1nw4128746 0.0 1020741
3 march, wed
wed300:00−1nw4118948 0.0 1021529
03:00−2wnw3109128 0.0 1022447
06:00−2wnw310936 0.0 1021449
09:00−1w4118917 0.0 1021592
12:00+1wnw598065 0.0 1020794
15:00+3wnw487383 0.0 1018973
18:00+1wsw3108033 0.0 1016379
21:00+1wsw4138453 0.0 1014586
4 march, thu
thu400:00+1wsw41479100 0.0 1010688
03:000wsw41281100 0.0 1007626
06:000wsw41086100 0.0 1003660
09:00+1wsw51196100 0.1 1001703
12:00+1wnw4997100 0.3 1000620
15:00+1nw475898 0.8 10021093
18:00−1nw277031 0.0 1002239
21:00−3nw398222 0.0 1004503
5 march, fri
fri500:00−4nw278233 0.0 1005586
03:00−5nw268643 0.0 1006436
06:00−5nw2685100 0.1 1007463
09:00−4nnw3673100 0.4 1008811
12:00−3nnw355996 0.1 10091326
15:00−3nnw355198 0.2 10101556
18:00−4nw356996 0.3 1010977
21:00−6nw237692 0.4 1012124
6 march, sat
sat600:00−6nw268694 0.1 1013503
03:00−7nw378692 0.1 1014452
06:00−8nw388310 0.0 1014628
09:00−8nw368243 0.0 1015601
12:00−6nw356582 0.0 10151034
15:00−5nw355689 0.1 10141257
18:00−6wsw136474 0.0 1012126
21:00−6s386871 0.0 1010306